Weather History for Boonville, MO

Change the Weather History Date:

Friday, March 8, 2013

  Actual Average Record
Temperature  
Mean Temperature 42 °F -  
Max Temperature 51 °F 50 °F 83 °F (1974)
Min Temperature 33 °F 29 °F 11 °F (1967)
Degree Days  
Heating Degree Days 23    
Moisture  
Dew Point 29 °F    
Average Humidity 63    
Maximum Humidity 81    
Minimum Humidity 46    
Precipitation  
Precipitation 0.00 in - - ()
Sea Level Pressure  
Sea Level Pressure 30.22 in    
Wind  
Wind Speed 9 mph (ESE)    
Max Wind Speed 13 mph    
Max Gust Speed 17 mph    
Visibility 10 miles    
Events Rain    
Averages and records for this station are not official NWS values.
T = Trace of Precipitation, MM = Missing Value Source: NWS Daily Summary

Daily Weather History Graph

Daily Weather History Graph

Search for Another Location

Airport:

Trip Planner

Search our weather history database for the weather conditions in past years. The results will help you decide how hot, cold, wet, or windy it might be!

Date:

Astronomy

Mar. 08, 2013 Rise Set
Actual Time 6:32 AM CST 6:10 PM CST
Civil Twilight 6:05 AM CST 6:37 PM CST
Nautical Twilight 5:34 AM CST 7:08 PM CST
Astronomical Twilight 5:03 AM CST 7:39 PM CST
Moon 4:15 AM CST (3/8) 3:07 PM CST (3/8)
Length of Visible Light 12h 31m
Length of Day
11h 38m
Waning Crescent, 11% of the Moon is Illuminated
Mar 8
Waning Crescent
Mar 11
New
Mar 19
First Quarter
Mar 27
Full
Apr 2
Last Quarter

Hourly Weather History & Observations

Time (CST) Temp. Windchill Dew Point Humidity Pressure Visibility Wind Dir Wind Speed Gust Speed Precip Events Conditions
12:15 AM 36.5 °F 29.7 °F 27.0 °F 68% 30.27 in 10.0 mi ESE 9.2 mph - N/A   Clear
12:35 AM 36.1 °F 29.9 °F 27.0 °F 69% 30.28 in 10.0 mi ESE 8.1 mph - N/A   Clear
12:55 AM 35.6 °F 29.2 °F 26.8 °F 70% 30.28 in 10.0 mi ESE 8.1 mph - N/A   Clear
1:15 AM 35.6 °F 29.2 °F 27.0 °F 71% 30.29 in 10.0 mi ESE 8.1 mph - N/A   Clear
1:35 AM 35.4 °F 29.0 °F 27.0 °F 71% 30.29 in 10.0 mi ESE 8.1 mph - N/A   Clear
1:55 AM 35.4 °F 27.8 °F 27.0 °F 71% 30.29 in 10.0 mi ESE 10.4 mph - N/A   Clear
2:15 AM 35.4 °F 29.0 °F 27.0 °F 71% 30.29 in 10.0 mi ESE 8.1 mph - N/A   Clear
2:35 AM 34.7 °F 27.5 °F 27.0 °F 73% 30.28 in 10.0 mi ESE 9.2 mph - N/A   Clear
2:55 AM 34.3 °F 27.0 °F 27.0 °F 74% 30.28 in 10.0 mi ESE 9.2 mph - N/A   Clear
3:15 AM 34.3 °F 26.5 °F 27.0 °F 74% 30.27 in 10.0 mi ESE 10.4 mph - N/A   Clear
3:35 AM 34.2 °F 26.2 °F 27.1 °F 75% 30.27 in 10.0 mi ESE 10.4 mph - N/A   Clear
3:55 AM 34.2 °F 26.8 °F 27.3 °F 76% 30.28 in 10.0 mi ESE 9.2 mph - N/A   Clear
4:15 AM 34.0 °F 27.2 °F 27.3 °F 77% 30.28 in 10.0 mi ESE 8.1 mph - N/A   Clear
4:35 AM 33.8 °F 27.0 °F 27.5 °F 78% 30.28 in 10.0 mi SE 8.1 mph - N/A   Clear
4:55 AM 33.6 °F 26.2 °F 27.7 °F 79% 30.28 in 10.0 mi SE 9.2 mph - N/A   Clear
5:15 AM 33.8 °F 26.4 °F 28.0 °F 79% 30.28 in 10.0 mi SE 9.2 mph - N/A   Clear
5:35 AM 33.8 °F 26.4 °F 28.0 °F 79% 30.27 in 10.0 mi ESE 9.2 mph - N/A   Clear
5:55 AM 33.8 °F 26.4 °F 28.0 °F 79% 30.28 in 10.0 mi SE 9.2 mph - N/A   Clear
6:15 AM 33.3 °F 25.7 °F 27.9 °F 81% 30.28 in 10.0 mi SE 9.2 mph - N/A   Clear
6:35 AM 33.3 °F 25.7 °F 27.9 °F 81% 30.28 in 10.0 mi SE 9.2 mph - N/A   Clear
6:55 AM 33.8 °F 25.8 °F 28.2 °F 80% 30.30 in 10.0 mi SE 10.4 mph - N/A   Clear
7:15 AM 34.2 °F 27.5 °F 28.4 °F 79% 30.30 in 10.0 mi SE 8.1 mph - N/A   Clear
7:35 AM 35.1 °F 26.9 °F 28.6 °F 77% 30.30 in 10.0 mi SE 11.5 mph - N/A   Clear
7:55 AM 36.1 °F 28.7 °F 28.9 °F 75% 30.30 in 10.0 mi SE 10.4 mph - N/A   Clear
8:15 AM 37.4 °F 29.8 °F 29.3 °F 73% 30.30 in 10.0 mi SE 11.5 mph - N/A   Clear
8:35 AM 38.3 °F 32.5 °F 29.3 °F 70% 30.30 in 10.0 mi SE 8.1 mph - N/A   Clear
8:55 AM 39.2 °F 32.5 °F 29.7 °F 69% 30.30 in 10.0 mi SE 10.4 mph - N/A   Clear
9:15 AM 39.6 °F 33.5 °F 29.7 °F 68% 30.30 in 10.0 mi SE 9.2 mph 17.3 mph N/A   Clear
9:35 AM 40.5 °F 34.6 °F 29.8 °F 66% 30.30 in 10.0 mi SE 9.2 mph - N/A   Clear
9:55 AM 41.2 °F 35.0 °F 29.8 °F 64% 30.28 in 10.0 mi ESE 10.4 mph - N/A   Clear
10:15 AM 41.9 °F 35.9 °F 30.0 °F 63% 30.29 in 10.0 mi ESE 10.4 mph - N/A   Clear
10:35 AM 42.6 °F 36.3 °F 30.0 °F 61% 30.28 in 10.0 mi ESE 11.5 mph - N/A   Clear
10:55 AM 43.3 °F 37.7 °F 30.2 °F 60% 30.27 in 10.0 mi ESE 10.4 mph - N/A   Clear
11:15 AM 44.1 °F 38.6 °F 30.0 °F 58% 30.28 in 10.0 mi SE 10.4 mph - N/A   Clear
11:35 AM 44.6 °F 38.8 °F 30.2 °F 57% 30.27 in 10.0 mi SE 11.5 mph - N/A   Clear
11:55 AM 45.9 °F 40.8 °F 30.2 °F 54% 30.26 in 10.0 mi SSE 10.4 mph - N/A   Clear
12:15 PM 46.8 °F - 30.6 °F 53% 30.25 in 10.0 mi SE 9.2 mph - N/A   Clear
12:35 PM 47.8 °F - 30.6 °F 51% 30.25 in 10.0 mi SE 8.1 mph - N/A   Clear
12:55 PM 49.3 °F - 30.6 °F 49% 30.24 in 10.0 mi SE 11.5 mph - N/A   Clear
1:15 PM 49.3 °F - 30.7 °F 49% 30.23 in 10.0 mi SE 10.4 mph - N/A   Clear
1:35 PM 49.6 °F - 30.9 °F 49% 30.22 in 10.0 mi SE 9.2 mph - N/A   Clear
1:55 PM 50.5 °F - 31.1 °F 47% 30.21 in 10.0 mi SE 8.1 mph - N/A   Clear
2:15 PM 50.7 °F - 31.1 °F 47% 30.21 in 10.0 mi SE 10.4 mph - N/A   Clear
2:35 PM 51.1 °F - 31.1 °F 46% 30.21 in 10.0 mi SE 8.1 mph - N/A   Clear
2:55 PM 50.7 °F - 31.1 °F 47% 30.20 in 10.0 mi ESE 5.8 mph - N/A   Clear
3:15 PM 50.0 °F - 31.3 °F 49% 30.20 in 10.0 mi ESE 8.1 mph - N/A   Clear
3:35 PM 49.8 °F - 31.5 °F 49% 30.19 in 10.0 mi ESE 5.8 mph - N/A   Clear
3:55 PM 49.6 °F - 31.5 °F 50% 30.18 in 10.0 mi ESE 8.1 mph - N/A   Clear
4:15 PM 49.5 °F - 31.3 °F 50% 30.18 in 10.0 mi ESE 9.2 mph - N/A   Mostly Cloudy
4:35 PM 48.7 °F - 31.1 °F 51% 30.18 in 10.0 mi East 8.1 mph - N/A   Overcast
4:55 PM 48.0 °F - 31.5 °F 53% 30.18 in 10.0 mi East 9.2 mph - N/A   Scattered Clouds
5:15 PM 46.6 °F - 31.6 °F 56% 30.16 in 10.0 mi East 10.4 mph - N/A   Scattered Clouds
5:35 PM 46.6 °F - 31.3 °F 55% 30.16 in 10.0 mi East 10.4 mph - N/A   Scattered Clouds
5:55 PM 46.6 °F - 31.1 °F 55% 30.16 in 10.0 mi East 10.4 mph - N/A   Clear
6:15 PM 46.8 °F - 30.7 °F 54% 30.16 in 10.0 mi East 9.2 mph - N/A   Scattered Clouds
6:35 PM 46.2 °F 40.8 °F 30.4 °F 54% 30.15 in 10.0 mi East 11.5 mph - N/A   Clear
6:55 PM 45.9 °F 40.8 °F 30.0 °F 54% 30.15 in 10.0 mi East 10.4 mph - N/A   Clear
7:15 PM 46.2 °F 40.8 °F 29.3 °F 52% 30.14 in 10.0 mi East 11.5 mph - N/A   Clear
7:35 PM 45.7 °F 41.0 °F 29.1 °F 52% 30.15 in 10.0 mi East 9.2 mph - N/A   Mostly Cloudy
7:55 PM 45.3 °F 40.1 °F 28.6 °F 52% 30.15 in 10.0 mi ESE 10.4 mph - N/A   Scattered Clouds
8:15 PM 44.8 °F 39.4 °F 28.4 °F 53% 30.15 in 10.0 mi ESE 10.4 mph - N/A   Mostly Cloudy
8:35 PM 44.8 °F 39.4 °F 28.4 °F 53% 30.15 in 10.0 mi ESE 10.4 mph - N/A   Overcast
8:55 PM 44.2 °F 38.8 °F 28.8 °F 55% 30.14 in 10.0 mi ESE 10.4 mph - N/A   Overcast
9:15 PM 43.3 °F 38.1 °F 29.7 °F 59% 30.14 in 10.0 mi ESE 9.2 mph - N/A Rain Light Rain
9:35 PM 43.2 °F 37.0 °F 30.0 °F 60% 30.13 in 10.0 mi ESE 11.5 mph - N/A Rain Light Rain
9:55 PM 43.9 °F 37.5 °F 29.5 °F 57% 30.13 in 10.0 mi ESE 12.7 mph - N/A   Overcast
10:15 PM 44.6 °F 38.4 °F 29.1 °F 55% 30.12 in 10.0 mi ESE 12.7 mph - N/A   Overcast
10:35 PM 44.1 °F 38.6 °F 29.5 °F 57% 30.12 in 10.0 mi SE 10.4 mph - N/A   Drizzle
10:55 PM 43.0 °F 37.2 °F 30.6 °F 62% 30.10 in 10.0 mi SE 10.4 mph - N/A Rain Light Rain
11:15 PM 42.4 °F 36.5 °F 31.3 °F 65% 30.10 in 10.0 mi SE 10.4 mph - N/A   Drizzle
11:35 PM 42.8 °F 36.6 °F 31.6 °F 65% 30.09 in 10.0 mi SE 11.5 mph - N/A   Light Drizzle
11:55 PM 42.8 °F 36.6 °F 31.6 °F 65% 30.08 in 10.0 mi ESE 11.5 mph - N/A   Overcast